TimePST,TemperatureF,Dew PointF,Humidity,Sea Level PressureIn,VisibilityMPH,Wind Direction,Wind SpeedMPH,Gust SpeedMPH,PrecipitationIn,Events,Conditions,WindDirDegrees,DateUTC
12:53 AM,42.1,39.9,92,29.63,10.0,Calm,Calm,-,0.00,Rain,Light Rain,0,2012-11-18 08:53:00
1:53 AM,41.0,39.0,93,29.63,10.0,SSE,5.8,-,0.00,,Overcast,160,2012-11-18 09:53:00
2:53 AM,42.1,39.0,89,29.65,10.0,WSW,4.6,-,0.00,Rain,Light Rain,250,2012-11-18 10:53:00
4:10 AM,43.0,39.9,89,29.66,10.0,SE,5.8,-,0.03,Rain,Rain,140,2012-11-18 12:10:00
4:53 AM,42.1,37.9,85,29.67,10.0,South,6.9,-,0.04,,Mostly Cloudy,170,2012-11-18 12:53:00
5:53 AM,43.0,37.9,82,29.65,10.0,West,3.5,-,0.00,Rain,Light Rain,260,2012-11-18 13:53:00
6:53 AM,41.0,39.0,93,29.65,10.0,WSW,5.8,-,0.00,Rain,Light Rain,240,2012-11-18 14:53:00
7:53 AM,42.1,39.9,92,29.65,10.0,SW,3.5,-,0.00,Rain,Light Rain,220,2012-11-18 15:53:00
8:53 AM,45.0,41.0,86,29.64,10.0,Calm,Calm,-,0.00,,Overcast,0,2012-11-18 16:53:00
9:53 AM,46.0,42.1,86,29.65,10.0,East,3.5,-,0.00,,Scattered Clouds,100,2012-11-18 17:53:00
10:20 AM,46.9,42.1,83,29.64,10.0,ESE,6.9,-,N/A,,Partly Cloudy,110,2012-11-18 18:20:00
10:53 AM,46.9,42.1,83,29.65,10.0,East,8.1,-,N/A,,Mostly Cloudy,100,2012-11-18 18:53:00
11:53 AM,46.9,42.1,83,29.63,10.0,East,4.6,-,N/A,,Scattered Clouds,90,2012-11-18 19:53:00
12:53 PM,48.0,41.0,77,29.60,10.0,ESE,3.5,-,N/A,,Overcast,120,2012-11-18 20:53:00
1:53 PM,48.9,37.9,66,29.56,10.0,Calm,Calm,-,0.00,,Mostly Cloudy,0,2012-11-18 21:53:00
2:53 PM,48.9,41.0,74,29.52,10.0,East,3.5,-,N/A,,Overcast,80,2012-11-18 22:53:00
3:53 PM,46.9,41.0,80,29.48,10.0,East,5.8,-,0.00,Rain,Light Rain,100,2012-11-18 23:53:00
4:53 PM,46.9,41.0,80,29.43,10.0,Variable,4.6,-,0.00,Rain,Light Rain,0,2012-11-19 00:53:00
5:53 PM,50.0,39.0,66,29.40,8.0,SE,9.2,26.5,0.01,Rain,Rain,140,2012-11-19 01:53:00
6:53 PM,50.0,39.9,68,29.33,10.0,SE,15.0,29.9,0.03,Rain,Light Rain,140,2012-11-19 02:53:00
7:53 PM,48.9,39.9,71,29.39,10.0,Variable,4.6,-,0.00,Rain,Light Rain,0,2012-11-19 03:53:00
8:53 PM,48.0,41.0,77,29.44,10.0,Variable,4.6,-,0.00,Rain,Light Rain,0,2012-11-19 04:53:00
9:53 PM,45.0,42.1,90,29.47,10.0,SSW,4.6,-,0.00,,Overcast,210,2012-11-19 05:53:00
10:53 PM,45.0,42.1,90,29.47,10.0,SSW,5.8,-,0.00,Rain,Light Rain,200,2012-11-19 06:53:00
11:53 PM,46.0,42.1,86,29.45,10.0,West,4.6,-,0.00,,Mostly Cloudy,260,2012-11-19 07:53:00